Total_Precipitation_Accumulation
0.99 0.94 0.93 0.87 0.84 0.87 0.94 1.13 1.39 1.18 0.65 0.44 0.48 0.50 0.53 0.59 0.68 0.70 0.71 0.84 0.94 0.99 1.03 1.08 1.17 1.28 1.45 1.78 2.43 3.24 3.82 4.19 4.16 3.93 3.75 3.74 4.03 4.44
1.18 1.15 1.10 1.05 1.04 1.03 1.04 1.09 1.29 1.49 1.13 0.53 0.50 0.56 0.62 0.65 0.74 0.72 0.72 0.85 0.91 1.01 1.10 1.12 1.20 1.30 1.41 1.56 1.82 2.42 3.18 3.70 4.06 4.23 4.20 4.19 4.30 4.54
1.20 1.21 1.19 1.18 1.22 1.22 1.23 1.23 1.27 1.45 1.43 0.73 0.51 0.56 0.69 0.74 0.76 0.73 0.73 0.79 0.82 0.94 1.06 1.14 1.23 1.31 1.38 1.49 1.65 1.94 2.51 3.12 3.61 4.10 4.45 4.49 4.46 4.48
1.17 1.22 1.22 1.23 1.27 1.27 1.32 1.31 1.30 1.34 1.46 1.12 0.72 0.67 0.74 0.78 0.82 0.82 0.76 0.76 0.78 0.89 1.02 1.15 1.22 1.29 1.35 1.43 1.55 1.74 2.04 2.58 3.07 3.45 3.93 4.20 4.27 4.46
1.09 1.14 1.19 1.27 1.32 1.30 1.31 1.32 1.28 1.24 1.30 1.32 0.98 0.79 0.82 0.86 0.92 0.95 0.93 0.92 0.88 0.92 0.98 1.10 1.22 1.27 1.34 1.40 1.47 1.56 1.69 1.94 2.43 3.03 3.56 3.97 4.05 4.07
1.05 1.09 1.16 1.28 1.37 1.45 1.54 1.46 1.37 1.43 1.45 1.48 1.26 1.01 0.92 0.91 1.08 1.14 1.12 1.05 1.01 0.93 0.97 1.00 1.12 1.23 1.26 1.27 1.29 1.35 1.49 1.75 2.16 2.69 3.16 3.60 3.85 3.82
1.08 1.06 1.09 1.29 1.53 1.75 1.90 1.83 1.79 1.86 1.82 1.80 1.60 1.32 1.14 1.13 1.21 1.19 1.24 1.14 1.11 1.07 1.02 0.95 0.94 0.95 1.01 1.14 1.22 1.27 1.37 1.54 1.79 2.16 2.66 3.10 3.51 3.75
1.20 1.13 1.11 1.21 1.32 1.52 1.75 1.82 1.91 2.04 2.12 2.08 1.92 1.66 1.29 1.16 1.21 1.39 1.54 1.56 1.40 1.05 1.04 1.04 1.03 1.10 1.04 1.03 1.19 1.27 1.32 1.44 1.65 1.89 2.21 2.56 2.93 3.39
1.12 1.07 1.07 1.07 1.15 1.07 1.21 1.34 1.42 1.61 1.86 2.04 2.11 1.72 1.40 1.27 1.49 1.75 1.78 1.77 1.51 1.25 1.34 1.45 1.25 1.23 1.14 1.21 1.39 1.32 1.37 1.48 1.61 1.76 1.98 2.27 2.51 2.87
1.06 1.05 1.05 1.02 1.04 1.14 1.19 1.21 1.12 1.15 1.38 1.62 1.77 1.61 1.51 1.52 1.76 2.09 2.25 2.31 1.94 1.55 1.57 1.83 1.46 1.31 1.22 1.23 1.45 1.42 1.39 1.47 1.59 1.73 1.85 1.99 2.20 2.49
1.09 1.20 1.26 1.15 1.23 1.43 1.51 1.45 1.22 1.05 1.13 1.47 1.75 1.80 1.87 2.07 2.30 2.68 2.99 3.10 2.75 2.01 1.72 1.90 1.66 1.43 1.34 1.30 1.38 1.49 1.47 1.48 1.53 1.63 1.77 1.89 2.03 2.27
1.15 1.27 1.59 1.54 1.54 1.59 1.58 1.61 1.55 1.22 1.10 1.15 1.26 1.37 1.41 1.51 1.90 2.23 2.53 2.87 2.83 2.49 1.87 1.87 1.85 1.81 1.90 1.47 1.27 1.23 1.30 1.47 1.54 1.56 1.68 1.83 2.01 2.02
1.32 1.35 1.47 1.60 1.59 1.62 1.67 1.63 1.68 1.59 1.50 1.46 1.38 1.31 1.33 1.44 1.60 1.84 2.09 2.44 2.72 2.54 1.97 2.12 2.29 2.13 2.15 1.79 1.39 1.27 1.20 1.20 1.27 1.42 1.60 1.80 1.97 2.06
1.36 1.26 1.34 1.54 1.59 1.62 1.58 1.61 1.72 1.74 1.62 1.57 1.49 1.38 1.32 1.35 1.40 1.53 1.79 1.96 2.14 2.22 2.00 2.21 2.59 2.39 2.35 2.02 1.57 1.42 1.32 1.25 1.22 1.28 1.39 1.73 1.90 2.03
1.36 1.55 1.54 1.52 1.47 1.40 1.43 1.50 1.49 1.44 1.50 1.49 1.35 1.19 1.10 1.12 1.22 1.39 1.58 1.77 1.91 1.97 2.00 2.01 2.18 2.26 2.45 2.35 1.78 1.49 1.49 1.47 1.37 1.35 1.41 1.50 1.61 1.77
1.35 1.47 1.47 1.34 1.23 1.21 1.27 1.29 1.26 1.34 1.47 1.48 1.33 1.18 1.09 1.14 1.24 1.33 1.51 1.66 1.92 1.96 1.88 1.91 2.03 2.34 2.58 2.24 1.98 1.72 1.52 1.66 1.59 1.50 1.49 1.52 1.54 1.58
1.57 1.53 1.40 1.25 1.17 1.10 1.07 1.05 1.08 1.22 1.35 1.33 1.34 1.33 1.27 1.26 1.28 1.29 1.46 1.62 1.82 1.78 1.75 1.85 2.02 2.25 2.49 2.49 2.39 1.95 1.65 1.59 1.64 1.67 1.64 1.66 1.64 1.62
1.56 1.47 1.26 1.14 1.09 1.05 1.04 1.05 1.03 1.07 1.12 1.20 1.29 1.32 1.34 1.35 1.35 1.34 1.47 1.64 1.70 1.63 1.65 1.75 2.05 2.47 2.76 2.78 2.44 2.10 1.81 1.70 1.76 1.83 1.75 1.71 1.68 1.56
1.30 1.17 1.08 1.07 1.05 1.04 1.04 1.05 1.03 0.98 1.02 1.15 1.25 1.30 1.34 1.39 1.39 1.40 1.45 1.54 1.57 1.55 1.59 1.71 2.03 2.54 2.78 2.57 2.37 2.11 1.96 1.82 1.86 2.02 1.94 1.70 1.61 1.49
1.06 1.08 1.05 1.03 1.02 1.03 1.05 1.05 1.03 1.01 1.04 1.10 1.14 1.18 1.25 1.35 1.37 1.30 1.31 1.44 1.53 1.57 1.62 1.72 1.96 2.32 2.64 2.37 2.22 2.19 2.08 2.01 2.03 2.15 2.04 1.76 1.63 1.65
0.98 1.00 0.99 1.02 1.03 1.01 1.00 1.01 1.04 1.06 1.03 1.05 1.07 1.07 1.12 1.25 1.28 1.19 1.22 1.33 1.53 1.65 1.66 1.63 1.76 2.05 2.36 2.49 2.45 2.24 2.18 2.17 2.12 2.20 2.13 2.04 1.92 1.81
0.95 0.98 0.95 0.96 1.00 1.02 1.01 1.01 1.04 1.03 1.02 1.02 1.02 1.03 1.07 1.18 1.23 1.17 1.23 1.34 1.42 1.47 1.52 1.55 1.67 2.03 2.48 2.66 2.44 2.16 2.14 2.21 2.30 2.23 2.16 2.12 2.23 2.20
1.04 1.02 0.95 0.90 0.91 0.96 1.00 1.01 1.01 0.98 0.95 1.01 1.04 1.04 1.08 1.16 1.15 1.19 1.23 1.28 1.37 1.41 1.46 1.62 1.77 2.02 2.27 2.28 2.27 2.16 2.03 2.02 2.10 2.21 2.41 2.16 1.77 1.60